Location: Finkenwalde
(53.3770°N, 14.6418°E)
Time: 03:53:31
(UTC+00:00)

Okean-O - Pass Details

Date: 05 February 2023
Orbit: 637 x 638 km, 98.1° (Epoch: 24 March)

Event Time Altitude Azimuth Distance (km) Brightness Sun altitude
Exits shadow 18:33:47 48° 10° (N) 846 3.1 -24.3°
Drops below altitude 10° 18:37:06 10° 350° (N) 2,045 5.4 -24.8°
Sets 18:39:20 0° 347° (NNW) 2,960 6.3 -25.1°
